Weather History for KCNI - April, 2013

Change the Weather History Date:

Monday, April 15, 2013

  Actual Average (KGVL) Record (KGVL)
Temperature  
Mean Temperature 63 °F 60 °F  
Max Temperature 73 °F 71 °F 88 °F (1954)
Min Temperature 53 °F 50 °F 25 °F (1943)
Degree Days  
Heating Degree Days 2 6  
Month to date heating degree days 111  
Since 1 July heating degree days 2963  
Cooling Degree Days 0 1  
Month to date cooling degree days 13  
Year to date cooling degree days 18  
Growing Degree Days 13 (Base 50)    
Moisture  
Dew Point 51 °F    
Average Humidity 69    
Maximum Humidity 94    
Minimum Humidity 38    
Precipitation  
Precipitation 0.00 in 0.09 in 1.50 in (1944)
Month to date precipitation 1.74  
Year to date precipitation 17.06  
Sea Level Pressure  
Sea Level Pressure 30.04 in    
Wind  
Wind Speed 3 mph (East)    
Max Wind Speed 8 mph    
Max Gust Speed -    
Visibility 7 miles    
Events Rain    
T = Trace of Precipitation, MM = Missing Value Source: NWS Daily Summary

Daily Weather History Graph

Daily Weather History Graph

Search for Another Location

Airport or City:

Trip Planner

Search our weather history database for the weather conditions in past years. The results will help you decide how hot, cold, wet, or windy it might be!

Date:

Astronomy

Apr. 15, 2013 Rise Set
Actual Time 7:06 AM EDT 8:09 PM EDT
Civil Twilight 6:40 AM EDT 8:35 PM EDT
Nautical Twilight 6:09 AM EDT 9:06 PM EDT
Astronomical Twilight 5:38 AM EDT 9:38 PM EDT
Moon 10:38 AM EDT (4/15) 12:13 AM EDT (4/15)
Length of Visible Light 13h 55m
Length of Day
13h 03m
Waxing Crescent, 24% of the Moon is Illuminated
Apr 15
Waxing Crescent
Apr 18
First Quarter
Apr 25
Full
May 2
Last Quarter
May 9
New

Hourly Weather History & Observations

Time (EDT) Temp. Dew Point Humidity Pressure Visibility Wind Dir Wind Speed Gust Speed Precip Events Conditions
12:15 AM 53.6 °F 51.8 °F 94% 29.96 in 5.0 mi Calm Calm - N/A   Light Drizzle
12:35 AM 53.6 °F 51.8 °F 94% 29.97 in 4.0 mi ENE 3.5 mph - N/A Rain Light Rain
12:55 AM 53.6 °F 51.8 °F 94% 29.97 in 3.0 mi East 4.6 mph - N/A Rain Rain
1:15 AM 53.6 °F 51.8 °F 94% 29.97 in 3.0 mi East 3.5 mph - N/A Rain Light Rain
1:35 AM 55.4 °F 51.8 °F 88% 29.97 in 3.0 mi Calm Calm - N/A   Light Drizzle
1:55 AM 55.4 °F 51.8 °F 88% 29.96 in 4.0 mi ENE 3.5 mph - N/A   Overcast
2:15 AM 55.4 °F 51.8 °F 88% 29.96 in 5.0 mi East 3.5 mph - N/A   Overcast
2:35 AM 55.4 °F 51.8 °F 88% 29.95 in 5.0 mi ENE 3.5 mph - N/A   Overcast
2:55 AM 55.4 °F 51.8 °F 88% 29.94 in 5.0 mi ENE 3.5 mph - N/A   Overcast
3:15 AM 55.4 °F 51.8 °F 88% 29.95 in 5.0 mi ENE 3.5 mph - N/A   Overcast
3:35 AM 55.4 °F 51.8 °F 88% 29.95 in 5.0 mi Calm Calm - N/A   Overcast
3:55 AM 55.4 °F 51.8 °F 88% 29.95 in 4.0 mi East 3.5 mph - N/A   Overcast
4:15 AM 55.4 °F 51.8 °F 88% 29.95 in 4.0 mi ENE 3.5 mph - N/A   Overcast
4:35 AM 55.4 °F 51.8 °F 88% 29.96 in 4.0 mi ENE 4.6 mph - N/A   Overcast
4:55 AM 55.4 °F 51.8 °F 88% 29.96 in 3.0 mi ENE 3.5 mph - N/A   Overcast
5:15 AM 55.4 °F 53.6 °F 94% 29.97 in 3.0 mi ENE 3.5 mph - N/A   Overcast
5:35 AM 55.4 °F 53.6 °F 94% 29.98 in 3.0 mi Calm Calm - N/A   Overcast
5:55 AM 55.4 °F 53.6 °F 94% 29.99 in 4.0 mi East 4.6 mph - N/A   Overcast
6:15 AM 55.4 °F 53.6 °F 94% 29.99 in 4.0 mi ENE 3.5 mph - N/A   Overcast
6:35 AM 55.4 °F 53.6 °F 94% 29.99 in 4.0 mi ENE 3.5 mph - N/A   Overcast
6:55 AM 55.4 °F 53.6 °F 94% 29.99 in 4.0 mi ENE 4.6 mph - N/A   Overcast
7:15 AM 55.4 °F 53.6 °F 94% 30.00 in 4.0 mi Calm Calm - N/A   Overcast
7:35 AM 55.4 °F 53.6 °F 94% 30.01 in 4.0 mi Calm Calm - N/A   Overcast
7:55 AM 55.4 °F 53.6 °F 94% 30.02 in 3.0 mi Calm Calm - N/A   Overcast
8:15 AM 55.4 °F 53.6 °F 94% 30.04 in 3.0 mi ENE 3.5 mph - N/A   Overcast
8:35 AM 55.4 °F 53.6 °F 94% 30.04 in 3.0 mi ENE 4.6 mph - N/A   Overcast
8:55 AM 57.2 °F 53.6 °F 88% 30.05 in 4.0 mi Calm Calm - N/A   Overcast
9:15 AM 57.2 °F 53.6 °F 88% 30.05 in 5.0 mi East 4.6 mph - N/A   Overcast
9:35 AM 59.0 °F 55.4 °F 88% 30.06 in 5.0 mi East 3.5 mph - N/A   Overcast
9:55 AM 59.0 °F 53.6 °F 82% 30.07 in 5.0 mi Calm Calm - N/A   Overcast
10:15 AM 59.0 °F 53.6 °F 82% 30.08 in 5.0 mi Calm Calm - N/A   Overcast
10:35 AM 59.0 °F 53.6 °F 82% 30.07 in 5.0 mi Calm Calm - N/A   Haze
10:55 AM 60.8 °F 53.6 °F 77% 30.07 in 7.0 mi Calm Calm - N/A   Overcast
11:15 AM 62.6 °F 51.8 °F 68% 30.08 in 10.0 mi Calm Calm - N/A   Mostly Cloudy
11:35 AM 64.4 °F 50.0 °F 59% 30.08 in 10.0 mi Calm Calm - N/A   Scattered Clouds
11:55 AM 64.4 °F 48.2 °F 56% 30.08 in 10.0 mi ENE 3.5 mph - N/A   Mostly Cloudy
12:15 PM 64.4 °F 48.2 °F 56% 30.08 in 10.0 mi Calm Calm - N/A   Overcast
12:35 PM 64.4 °F 48.2 °F 56% 30.07 in 10.0 mi Calm Calm - N/A   Overcast
12:55 PM 66.2 °F 48.2 °F 52% 30.08 in 10.0 mi Calm Calm - N/A   Overcast
1:15 PM 68.0 °F 46.4 °F 46% 30.07 in 10.0 mi Calm Calm - N/A   Overcast
1:35 PM 68.0 °F 50.0 °F 52% 30.07 in 10.0 mi SSE 5.8 mph - N/A   Overcast
1:55 PM 68.0 °F 48.2 °F 49% 30.07 in 10.0 mi Calm Calm - N/A   Overcast
2:15 PM 68.0 °F 48.2 °F 49% 30.07 in 10.0 mi Calm Calm - N/A   Overcast
2:35 PM 68.0 °F 50.0 °F 52% 30.07 in 10.0 mi South 5.8 mph - N/A   Overcast
2:55 PM 69.8 °F 48.2 °F 46% 30.07 in 10.0 mi Calm Calm - N/A   Overcast
3:15 PM 71.6 °F 48.2 °F 43% 30.07 in 10.0 mi East 5.8 mph - N/A   Overcast
3:35 PM 71.6 °F 50.0 °F 46% 30.07 in 10.0 mi ESE 8.1 mph - N/A   Overcast
3:55 PM 71.6 °F 50.0 °F 46% 30.06 in 10.0 mi SSE 6.9 mph - N/A   Mostly Cloudy
4:15 PM 71.6 °F 48.2 °F 43% 30.06 in 10.0 mi SSE 3.5 mph - N/A   Scattered Clouds
4:35 PM 71.6 °F 48.2 °F 43% 30.05 in 10.0 mi SE 6.9 mph - N/A   Clear
4:55 PM 73.4 °F 48.2 °F 41% 30.05 in 10.0 mi South 8.1 mph - N/A   Clear
5:15 PM 73.4 °F 46.4 °F 38% 30.05 in 10.0 mi SE 6.9 mph - N/A   Clear
5:35 PM 73.4 °F 46.4 °F 38% 30.05 in 10.0 mi East 6.9 mph - N/A   Clear
5:55 PM 73.4 °F 48.2 °F 41% 30.05 in 10.0 mi East 4.6 mph - N/A   Clear
6:15 PM 73.4 °F 46.4 °F 38% 30.06 in 10.0 mi East 6.9 mph - N/A   Clear
6:35 PM 71.6 °F 46.4 °F 41% 30.06 in 10.0 mi ESE 5.8 mph - N/A   Clear
6:55 PM 71.6 °F 48.2 °F 43% 30.07 in 10.0 mi SE 5.8 mph - N/A   Clear
7:15 PM 71.6 °F 48.2 °F 43% 30.07 in 10.0 mi East 6.9 mph - N/A   Clear
7:35 PM 71.6 °F 50.0 °F 46% 30.08 in 10.0 mi East 5.8 mph - N/A   Scattered Clouds
7:55 PM 71.6 °F 50.0 °F 46% 30.08 in 10.0 mi East 4.6 mph - N/A   Mostly Cloudy
8:15 PM 69.8 °F 50.0 °F 49% 30.09 in 10.0 mi East 4.6 mph - N/A   Mostly Cloudy
8:35 PM 69.8 °F 50.0 °F 49% 30.10 in 10.0 mi East 3.5 mph - N/A   Scattered Clouds
8:55 PM 68.0 °F 50.0 °F 52% 30.11 in 10.0 mi East 3.5 mph - N/A   Scattered Clouds
9:15 PM 68.0 °F 51.8 °F 56% 30.12 in 10.0 mi East 4.6 mph - N/A   Clear
9:35 PM 66.2 °F 51.8 °F 60% 30.12 in 10.0 mi East 3.5 mph - N/A   Clear
9:55 PM 66.2 °F 51.8 °F 60% 30.14 in 10.0 mi East 4.6 mph - N/A   Scattered Clouds
10:35 PM 64.4 °F 51.8 °F 64% 30.15 in 10.0 mi East 3.5 mph - N/A   Mostly Cloudy
10:55 PM 64.4 °F 51.8 °F 64% 30.16 in 10.0 mi East 3.5 mph - N/A   Mostly Cloudy
11:15 PM 64.4 °F 53.6 °F 68% 30.16 in 10.0 mi East 3.5 mph - N/A   Mostly Cloudy
11:35 PM 64.4 °F 53.6 °F 68% 30.16 in 10.0 mi East 3.5 mph - N/A   Scattered Clouds
11:55 PM 64.4 °F 53.6 °F 68% 30.17 in 10.0 mi East 3.5 mph - N/A   Scattered Clouds